sat.trackr.live / text

‹ back to catalog

STARLINK-34920

NORAD 65447 · 2025-194P

PAYLOAD ACTIVE UNKNOWN

§ Identity

Operator
Country
US
Launch date
2025-09-03
Launch site
AFWTR
Launch vehicle
Mass (kg)
RCS (m²)

Purposes: comms

External: N2YO · Heavens-Above · Gunter

§ Orbital elements

Epoch: 2026-05-25T03:10:21.748224Z

Period
95.64 min
Inclination
97.4499°
Eccentricity
0.0002210
Mean motion
15.05657791 rev/d
Perigee alt
548.0 km
Apogee alt
551.0 km
Semi-major
6,927.6 km
B*
2.5841e-4
RAAN
359.4166°
Arg perigee
80.3879°
Mean anomaly
279.7598°
Rev number
4,115

§ Raw data

STARLINK-349201 65447U 25194P   26145.13219616  .00003673  00000+0  25841-3 0  99952 65447  97.4499 359.4166 0002210  80.3879 279.7598 15.05657791 41158

JSON: /api/v1/satellites/65447 · /tle

For live sub-satellite position, see the globe view (requires WebGL).

§ Visibility from observer

Set your observer location to see the next 7 days of passes ≥ 10°. The values pass through the URL so the page stays shareable.

No JS? Fill the form by hand. The geolocation button needs JavaScript.